Weather History for Pampa / Mesa Vista, TX

Change the Weather History Date:

Sunday, February 3, 2013

  Actual Average (KBGD) Record (KBGD)
Temperature  
Mean Temperature 45 °F 40 °F  
Max Temperature 62 °F 53 °F 78 °F (1962)
Min Temperature 28 °F 28 °F -5 °F (1989)
Degree Days  
Heating Degree Days 20 25  
Month to date heating degree days 75  
Since 1 July heating degree days 2427  
Cooling Degree Days 0 0  
Month to date cooling degree days 0  
Year to date cooling degree days 0  
Moisture  
Dew Point 24 °F    
Average Humidity 48    
Maximum Humidity 75    
Minimum Humidity 17    
Precipitation  
Precipitation 0.00 in 0.02 in 1.18 in (1964)
Month to date precipitation 0.07  
Year to date precipitation 0.66  
Snow  
Snow 0.00 in - 10.00 in (1964)
Month to date snowfall  
Since 1 July snowfall  
Snow Depth -    
Sea Level Pressure  
Sea Level Pressure 30.09 in    
Wind  
Wind Speed 9 mph (SW)    
Max Wind Speed 29 mph    
Max Gust Speed 36 mph    
Visibility 10 miles    
Events      
T = Trace of Precipitation, MM = Missing Value Source: NWS Daily Summary

Daily Weather History Graph

Daily Weather History Graph

Search for Another Location

Airport:

Trip Planner

Search our weather history database for the weather conditions in past years. The results will help you decide how hot, cold, wet, or windy it might be!

Date:

Astronomy

Feb. 03, 2013 Rise Set
Actual Time 7:42 AM CST 6:13 PM CST
Civil Twilight 7:15 AM CST 6:40 PM CST
Nautical Twilight 6:45 AM CST 7:11 PM CST
Astronomical Twilight 6:15 AM CST 7:41 PM CST
Moon 1:11 AM CST (2/3) 11:53 AM CST (2/3)
Length of Visible Light 11h 24m
Length of Day
10h 31m
Waning Gibbous, 48% of the Moon is Illuminated
Feb 3
Waning Gibbous
Feb 10
New
Feb 17
First Quarter
Feb 25
Full
Mar 4
Last Quarter

Hourly Weather History & Observations

Time (CST) Temp. Windchill Dew Point Humidity Pressure Visibility Wind Dir Wind Speed Gust Speed Precip Events Conditions
12:15 AM 32.0 °F 27.5 °F 23.0 °F 69% 30.30 in 10.0 mi West 4.6 mph - N/A   Clear
12:35 AM 32.0 °F 26.4 °F 23.0 °F 69% 30.30 in 10.0 mi WSW 5.8 mph - N/A   Clear
12:55 AM 30.2 °F 24.3 °F 21.2 °F 69% 30.30 in 10.0 mi West 5.8 mph - N/A   Clear
1:15 AM 30.2 °F 24.3 °F 23.0 °F 75% 30.30 in 10.0 mi SW 5.8 mph - N/A   Clear
1:35 AM 32.0 °F 26.4 °F 23.0 °F 69% 30.29 in 10.0 mi WSW 5.8 mph - N/A   Clear
1:55 AM 28.4 °F 21.2 °F 21.2 °F 74% 30.29 in 10.0 mi WSW 6.9 mph - N/A   Clear
2:15 AM 30.2 °F 25.4 °F 23.0 °F 75% 30.29 in 10.0 mi SW 4.6 mph - N/A   Clear
2:35 AM 30.2 °F 26.7 °F 23.0 °F 75% 30.28 in 10.0 mi SSW 3.5 mph - N/A   Clear
2:55 AM 30.2 °F 25.4 °F 21.2 °F 69% 30.27 in 10.0 mi SSW 4.6 mph - N/A   Clear
3:15 AM 30.2 °F - 23.0 °F 75% 30.27 in 10.0 mi Calm Calm - N/A   Clear
3:35 AM 30.2 °F - 23.0 °F 75% 30.26 in 10.0 mi Calm Calm - N/A   Clear
3:55 AM 32.0 °F 28.7 °F 23.0 °F 69% 30.26 in 10.0 mi SW 3.5 mph - N/A   Clear
4:15 AM 30.2 °F - 21.2 °F 69% 30.26 in 10.0 mi Calm Calm - N/A   Clear
4:35 AM 30.2 °F - 21.2 °F 69% 30.25 in 10.0 mi Calm Calm - N/A   Clear
4:55 AM 32.0 °F 28.7 °F 21.2 °F 64% 30.25 in 10.0 mi WSW 3.5 mph - N/A   Clear
5:15 AM 30.2 °F 25.4 °F 21.2 °F 69% 30.24 in 10.0 mi SW 4.6 mph - N/A   Clear
5:35 AM 32.0 °F 27.5 °F 21.2 °F 64% 30.24 in 10.0 mi WSW 4.6 mph - N/A   Clear
5:55 AM 32.0 °F - 21.2 °F 64% 30.24 in 10.0 mi Calm Calm - N/A   Clear
6:15 AM 30.2 °F - 21.2 °F 69% 30.24 in 10.0 mi Calm Calm - N/A   Clear
6:35 AM 32.0 °F 28.7 °F 21.2 °F 64% 30.23 in 10.0 mi WSW 3.5 mph - N/A   Clear
7:15 AM 30.2 °F 26.7 °F 21.2 °F 69% 30.23 in 10.0 mi SW 3.5 mph - N/A   Clear
7:35 AM 28.4 °F 24.6 °F 21.2 °F 74% 30.23 in 10.0 mi WSW 3.5 mph - N/A   Clear
7:55 AM 30.2 °F - 21.2 °F 69% 30.23 in 10.0 mi Calm Calm - N/A   Clear
8:15 AM 32.0 °F 28.7 °F 23.0 °F 69% 30.22 in 10.0 mi SSW 3.5 mph - N/A   Clear
8:35 AM 33.8 °F 30.8 °F 26.6 °F 75% 30.22 in 10.0 mi SW 3.5 mph - N/A   Clear
8:55 AM 35.6 °F - 26.6 °F 70% 30.22 in 10.0 mi Calm Calm - N/A   Clear
9:15 AM 37.4 °F - 28.4 °F 70% 30.21 in 10.0 mi Calm Calm - N/A   Clear
9:35 AM 44.6 °F 38.1 °F 26.6 °F 49% 30.20 in 10.0 mi SW 13.8 mph 17.3 mph N/A   Clear
9:55 AM 46.4 °F 39.5 °F 24.8 °F 43% 30.19 in 10.0 mi SW 17.3 mph 23.0 mph N/A   Clear
10:15 AM 48.2 °F - 23.0 °F 37% 30.19 in 10.0 mi SW 17.3 mph 21.9 mph N/A   Clear
10:35 AM 51.8 °F - 24.8 °F 35% 30.19 in 10.0 mi WSW 16.1 mph - N/A   Clear
11:15 AM 59.0 °F - 19.4 °F 22% 30.17 in 10.0 mi WSW 19.6 mph 24.2 mph N/A   Clear
11:35 AM 59.0 °F - 17.6 °F 20% 30.16 in 10.0 mi SW 20.7 mph 28.8 mph N/A   Clear
11:55 AM 60.8 °F - 17.6 °F 19% 30.14 in 10.0 mi SSW 21.9 mph 27.6 mph N/A   Clear
12:15 PM 60.8 °F - 15.8 °F 17% 30.13 in 10.0 mi SSW 24.2 mph 32.2 mph N/A   Clear
12:35 PM 60.8 °F - 17.6 °F 19% 30.11 in 10.0 mi SW 21.9 mph 29.9 mph N/A   Clear
12:55 PM 62.6 °F - 17.6 °F 18% 30.09 in 10.0 mi SSW 23.0 mph 34.5 mph N/A   Clear
1:15 PM 62.6 °F - 17.6 °F 18% 30.07 in 10.0 mi SSW 25.3 mph 32.2 mph N/A   Clear
1:35 PM 62.6 °F - 17.6 °F 18% 30.05 in 10.0 mi SSW 28.8 mph 35.7 mph N/A   Clear
1:55 PM 62.6 °F - 17.6 °F 18% 30.05 in 10.0 mi SSW 23.0 mph 35.7 mph N/A   Clear
2:15 PM 62.6 °F - 17.6 °F 18% 30.03 in 10.0 mi SSW 24.2 mph 35.7 mph N/A   Clear
2:35 PM 60.8 °F - 19.4 °F 20% 30.01 in 10.0 mi SSW 24.2 mph 35.7 mph N/A   Clear
2:55 PM 60.8 °F - 21.2 °F 22% 29.99 in 10.0 mi SSW 27.6 mph 33.4 mph N/A   Clear
3:15 PM 60.8 °F - 21.2 °F 22% 29.98 in 10.0 mi SSW 21.9 mph 34.5 mph N/A   Clear
3:35 PM 62.6 °F - 23.0 °F 22% 29.97 in 10.0 mi SSW 25.3 mph 33.4 mph N/A   Clear
4:15 PM 60.8 °F - 21.2 °F 22% 29.94 in 10.0 mi SSW 26.5 mph 35.7 mph N/A   Clear
4:35 PM 60.8 °F - 21.2 °F 22% 29.93 in 10.0 mi SSW 27.6 mph 32.2 mph N/A   Clear
4:55 PM 60.8 °F - 23.0 °F 23% 29.93 in 10.0 mi SSW 24.2 mph 33.4 mph N/A   Clear
5:15 PM 60.8 °F - 23.0 °F 23% 29.91 in 10.0 mi SSW 21.9 mph 29.9 mph N/A   Clear
5:35 PM 60.8 °F - 24.8 °F 25% 29.91 in 10.0 mi SSW 20.7 mph 29.9 mph N/A   Clear
5:55 PM 59.0 °F - 26.6 °F 29% 29.91 in 10.0 mi SSW 18.4 mph 27.6 mph N/A   Clear
6:15 PM 59.0 °F - 26.6 °F 29% 29.91 in 10.0 mi SSW 17.3 mph 23.0 mph N/A   Clear
6:35 PM 57.2 °F - 26.6 °F 31% 29.91 in 10.0 mi SSW 13.8 mph 19.6 mph N/A   Clear
6:55 PM 55.4 °F - 26.6 °F 33% 29.90 in 10.0 mi SSW 11.5 mph 17.3 mph N/A   Clear
7:15 PM 53.6 °F - 26.6 °F 35% 29.90 in 10.0 mi SSW 8.1 mph - N/A   Clear
7:35 PM 53.6 °F - 28.4 °F 38% 29.91 in 10.0 mi South 6.9 mph - N/A   Clear
7:55 PM 51.8 °F - 30.2 °F 44% 29.90 in 10.0 mi SSW 9.2 mph - N/A   Clear
8:15 PM 51.8 °F - 32.0 °F 47% 29.89 in 10.0 mi South 10.4 mph - N/A   Clear
8:35 PM 51.8 °F - 32.0 °F 47% 29.87 in 10.0 mi South 11.5 mph - N/A   Clear
8:55 PM 51.8 °F - 32.0 °F 47% 29.87 in 10.0 mi South 12.7 mph - N/A   Clear
9:15 PM 51.8 °F - 33.8 °F 50% 29.87 in 10.0 mi South 11.5 mph 18.4 mph N/A   Clear
9:35 PM 51.8 °F - 33.8 °F 50% 29.87 in 10.0 mi South 12.7 mph - N/A   Clear
9:55 PM 51.8 °F - 33.8 °F 50% 29.86 in 10.0 mi South 11.5 mph - N/A   Clear
10:15 PM 51.8 °F - 33.8 °F 50% 29.85 in 10.0 mi South 15.0 mph - N/A   Clear
10:35 PM 50.0 °F - 33.8 °F 54% 29.85 in 10.0 mi SSW 12.7 mph - N/A   Clear
11:15 PM 51.8 °F - 33.8 °F 50% 29.84 in 10.0 mi SSW 12.7 mph - N/A   Clear
11:35 PM 51.8 °F - 35.6 °F 54% 29.83 in 10.0 mi SSW 11.5 mph - N/A   Clear
11:55 PM 51.8 °F - 35.6 °F 54% 29.82 in 10.0 mi SSW 13.8 mph - N/A   Scattered Clouds